Time,TemperatureF,DewpointF,PressureIn,WindDirection,WindDirectionDegrees,WindSpeedMPH,WindSpeedGustMPH,Humidity,HourlyPrecipIn,Conditions,Clouds,dailyrainin,SoftwareType,DateUTC
2013-12-20 00:43:00,56.0,27.0,30.02,SW,215,4.0,-999.0,33,-99.99,,,-99.99,,2013-12-20 05:43:00,
2013-12-20 00:52:00,56.0,27.0,30.02,SW,218,4.0,-999.0,32,-99.99,,,-99.99,,2013-12-20 05:52:00,
2013-12-20 01:22:00,56.0,27.0,30.01,SSW,202,6.0,-999.0,32,-99.99,,,-99.99,,2013-12-20 06:22:00,
2013-12-20 01:43:00,56.0,26.0,30.00,South,179,6.0,-999.0,31,-99.99,,,-99.99,,2013-12-20 06:43:00,
2013-12-20 01:52:00,56.0,27.0,29.99,SSW,210,7.0,-999.0,32,-99.99,,,-99.99,,2013-12-20 06:52:00,
2013-12-20 02:22:00,56.0,27.0,29.99,SSW,192,8.0,-999.0,33,-99.99,,,-99.99,,2013-12-20 07:22:00,
2013-12-20 02:43:00,56.0,28.0,29.99,SW,229,7.0,-999.0,34,-99.99,,,-99.99,,2013-12-20 07:43:00,
2013-12-20 02:52:00,56.0,29.0,30.00,SSW,202,6.0,-999.0,36,-99.99,,,-99.99,,2013-12-20 07:52:00,
2013-12-20 03:22:00,56.0,29.0,30.00,South,179,5.0,-999.0,36,-99.99,,,-99.99,,2013-12-20 08:22:00,
2013-12-20 03:42:00,56.0,30.0,30.00,SSW,203,7.0,-999.0,37,-99.99,,,-99.99,,2013-12-20 08:42:00,
2013-12-20 03:52:00,57.0,31.0,30.00,SSW,200,7.0,-999.0,37,-99.99,,,-99.99,,2013-12-20 08:52:00,
2013-12-20 04:22:00,57.0,30.0,29.99,WSW,239,8.0,-999.0,35,-99.99,,,-99.99,,2013-12-20 09:22:00,
2013-12-20 04:53:00,57.0,30.0,29.98,SW,224,7.0,-999.0,35,-99.99,,,-99.99,,2013-12-20 09:53:00,
2013-12-20 05:23:00,57.0,29.0,29.99,SW,214,9.0,-999.0,34,-99.99,,,-99.99,,2013-12-20 10:23:00,
2013-12-20 05:53:00,57.0,29.0,29.97,SSW,200,9.0,-999.0,34,-99.99,,,-99.99,,2013-12-20 10:53:00,
2013-12-20 06:22:00,58.0,31.0,29.97,SW,217,10.0,-999.0,36,-99.99,,,-99.99,,2013-12-20 11:22:00,
2013-12-20 06:52:00,58.0,34.0,29.98,SSW,210,8.0,-999.0,40,-99.99,,,-99.99,,2013-12-20 11:52:00,
2013-12-20 07:23:00,58.0,33.0,29.97,SW,232,10.0,-999.0,39,-99.99,,,-99.99,,2013-12-20 12:23:00,
2013-12-20 07:42:00,58.0,36.0,29.97,SW,222,9.0,-999.0,43,-99.99,,,-99.99,,2013-12-20 12:42:00,
2013-12-20 07:52:00,58.0,34.0,29.97,SSW,192,9.0,-999.0,41,-99.99,,,-99.99,,2013-12-20 12:52:00,
2013-12-20 08:22:00,58.0,36.0,29.96,South,173,8.0,-999.0,43,-99.99,,,-99.99,,2013-12-20 13:22:00,
2013-12-20 08:42:00,58.0,37.0,29.96,SSW,205,8.0,-999.0,45,-99.99,,,-99.99,,2013-12-20 13:42:00,
2013-12-20 08:53:00,58.0,37.0,29.96,SW,236,9.0,-999.0,45,-99.99,,,-99.99,,2013-12-20 13:53:00,
2013-12-20 09:22:00,59.0,40.0,29.97,SSW,193,7.0,-999.0,50,-99.99,,,-99.99,,2013-12-20 14:22:00,
2013-12-20 09:42:00,59.0,40.0,29.97,SSE,161,7.0,-999.0,50,-99.99,,,-99.99,,2013-12-20 14:42:00,
2013-12-20 09:52:00,58.0,39.0,29.97,SW,229,6.0,-999.0,50,-99.99,,,-99.99,,2013-12-20 14:52:00,
2013-12-20 10:11:00,58.0,41.0,29.97,South,179,8.0,-999.0,53,-99.99,,,-99.99,,2013-12-20 15:11:00,
2013-12-20 10:22:00,59.0,42.0,29.98,SW,222,10.0,-999.0,54,-99.99,,,-99.99,,2013-12-20 15:22:00,
2013-12-20 10:53:00,59.0,44.0,29.98,SW,230,9.0,-999.0,58,-99.99,,,-99.99,,2013-12-20 15:53:00,
2013-12-20 11:23:00,57.0,48.0,29.97,SSW,199,5.0,-999.0,72,-99.99,,,-99.99,,2013-12-20 16:23:00,
2013-12-20 11:43:00,56.0,49.0,29.96,South,187,4.0,-999.0,77,-99.99,,,-99.99,,2013-12-20 16:43:00,
2013-12-20 11:53:00,55.0,49.0,29.96,SSE,163,3.0,-999.0,79,-99.99,,,-99.99,,2013-12-20 16:53:00,
2013-12-20 12:22:00,54.0,50.0,29.95,SSW,202,4.0,-999.0,85,-99.99,,,-99.99,,2013-12-20 17:22:00,
2013-12-20 12:42:00,55.0,51.0,29.93,SSW,195,2.0,-999.0,86,-99.99,,,-99.99,,2013-12-20 17:42:00,
2013-12-20 12:52:00,55.0,51.0,29.93,South,184,3.0,-999.0,85,-99.99,,,-99.99,,2013-12-20 17:52:00,
2013-12-20 13:22:00,57.0,52.0,29.92,SSW,211,3.0,-999.0,82,-99.99,,,-99.99,,2013-12-20 18:22:00,
2013-12-20 13:42:00,58.0,52.0,29.91,SSW,213,5.0,-999.0,81,-99.99,,,-99.99,,2013-12-20 18:42:00,
2013-12-20 13:52:00,59.0,52.0,29.90,South,189,6.0,-999.0,79,-99.99,,,-99.99,,2013-12-20 18:52:00,
2013-12-20 14:22:00,60.0,53.0,29.89,WSW,240,5.0,-999.0,77,-99.99,,,-99.99,,2013-12-20 19:22:00,
2013-12-20 14:42:00,61.0,53.0,29.88,SW,229,5.0,-999.0,74,-99.99,,,-99.99,,2013-12-20 19:42:00,
2013-12-20 14:52:00,63.0,54.0,29.88,SW,223,5.0,-999.0,72,-99.99,,,-99.99,,2013-12-20 19:52:00,
2013-12-20 15:22:00,65.0,54.0,29.87,SSW,209,7.0,-999.0,67,-99.99,,,-99.99,,2013-12-20 20:22:00,
2013-12-20 15:52:00,65.0,54.0,29.88,WSW,249,7.0,-999.0,67,-99.99,,,-99.99,,2013-12-20 20:52:00,
2013-12-20 16:22:00,65.0,54.0,29.88,SSW,209,4.0,-999.0,67,-99.99,,,-99.99,,2013-12-20 21:22:00,
2013-12-20 16:53:00,64.0,53.0,29.89,South,182,5.0,-999.0,68,-99.99,,,-99.99,,2013-12-20 21:53:00,
2013-12-20 17:13:00,64.0,54.0,29.89,SW,214,4.0,-999.0,69,-99.99,,,-99.99,,2013-12-20 22:13:00,
2013-12-20 17:23:00,64.0,54.0,29.90,SW,227,6.0,-999.0,69,-99.99,,,-99.99,,2013-12-20 22:23:00,
2013-12-20 17:43:00,64.0,54.0,29.90,SSW,202,5.0,-999.0,70,-99.99,,,-99.99,,2013-12-20 22:43:00,
2013-12-20 17:53:00,64.0,54.0,29.91,SW,216,6.0,-999.0,71,-99.99,,,-99.99,,2013-12-20 22:53:00,
2013-12-20 18:22:00,64.0,55.0,29.91,SW,225,5.0,-999.0,73,-99.99,,,-99.99,,2013-12-20 23:22:00,
2013-12-20 18:42:00,63.0,55.0,29.91,SW,229,8.0,-999.0,74,-99.99,,,-99.99,,2013-12-20 23:42:00,
2013-12-20 18:53:00,63.0,55.0,29.91,WSW,242,6.0,-999.0,75,-99.99,,,-99.99,,2013-12-20 23:53:00,
2013-12-20 19:22:00,63.0,55.0,29.91,SW,217,6.0,-999.0,75,-99.99,,,-99.99,,2013-12-21 00:22:00,
2013-12-20 19:42:00,63.0,55.0,29.91,SW,229,5.0,-999.0,75,-99.99,,,-99.99,,2013-12-21 00:42:00,
2013-12-20 19:52:00,63.0,55.0,29.91,SSW,204,7.0,-999.0,74,-99.99,,,-99.99,,2013-12-21 00:52:00,
2013-12-20 20:11:00,63.0,55.0,29.91,SW,217,5.0,-999.0,74,-99.99,,,-99.99,,2013-12-21 01:11:00,
2013-12-20 20:22:00,63.0,55.0,29.91,SW,217,5.0,-999.0,74,-99.99,,,-99.99,,2013-12-21 01:22:00,
2013-12-20 20:42:00,62.0,53.0,29.91,South,182,4.0,-999.0,72,-99.99,,,-99.99,,2013-12-21 01:42:00,
2013-12-20 20:52:00,62.0,52.0,29.91,SSW,194,7.0,-999.0,70,-99.99,,,-99.99,,2013-12-21 01:52:00,
2013-12-20 21:22:00,62.0,52.0,29.91,SW,224,7.0,-999.0,71,-99.99,,,-99.99,,2013-12-21 02:22:00,
2013-12-20 21:42:00,62.0,53.0,29.91,SW,225,6.0,-999.0,72,-99.99,,,-99.99,,2013-12-21 02:42:00,
2013-12-20 21:52:00,62.0,53.0,29.91,SW,227,7.0,-999.0,72,-99.99,,,-99.99,,2013-12-21 02:52:00,
2013-12-20 22:11:00,62.0,53.0,29.91,SW,234,7.0,-999.0,72,-99.99,,,-99.99,,2013-12-21 03:11:00,
2013-12-20 22:22:00,62.0,53.0,29.90,SW,215,6.0,-999.0,73,-99.99,,,-99.99,,2013-12-21 03:22:00,
2013-12-20 22:53:00,63.0,54.0,29.90,South,191,8.0,-999.0,72,-99.99,,,-99.99,,2013-12-21 03:53:00,
2013-12-20 23:13:00,63.0,53.0,29.90,SSW,208,8.0,-999.0,71,-99.99,,,-99.99,,2013-12-21 04:13:00,
2013-12-20 23:23:00,63.0,53.0,29.90,SW,223,6.0,-999.0,71,-99.99,,,-99.99,,2013-12-21 04:23:00,
2013-12-20 23:43:00,63.0,53.0,29.90,SSW,203,5.0,-999.0,71,-99.99,,,-99.99,,2013-12-21 04:43:00,
2013-12-20 23:52:00,63.0,53.0,29.89,South,184,8.0,-999.0,71,-99.99,,,-99.99,,2013-12-21 04:52:00,